Niagara Falls, NY

4:20 AM EST on November 13, 2019 (GMT -0500)
Niagara Falls International

Weather History for KIAG - September, 2019

Change the Weather History Date:

Wednesday, September 4, 2019

  Actual Average Record
Temperature  
Mean Temperature 67 °F -  
Max Temperature 75 °F 75 °F 89 °F (1999)
Min Temperature 59 °F 55 °F 42 °F (1997)
Cooling Degree Days 2    
Growing Degree Days 17 (Base 50)    
Moisture  
Dew Point 59 °F    
Average Humidity 73    
Maximum Humidity 90    
Minimum Humidity 63    
Precipitation  
Precipitation 0.13 in - - ()
Sea Level Pressure  
Sea Level Pressure 29.87 in    
Wind  
Wind Speed 16 mph (West)    
Max Wind Speed 20 mph    
Max Gust Speed 31 mph    
Visibility 9 miles    
Events Rain , Thunderstorm    
Averages and records for this station are not official NWS values.
T = Trace of Precipitation, MM = Missing Value Source: NWS Daily Summary

Daily Weather History Graph

Daily Weather History Graph

Search for Another Location

Airport or City:

Astronomy

Sep. 04, 2019 Rise Set
Actual Time 6:43 AM EDT 7:45 PM EDT
Civil Twilight 6:14 AM EDT 8:14 PM EDT
Nautical Twilight 5:39 AM EDT 8:49 PM EDT
Astronomical Twilight 5:02 AM EDT 9:25 PM EDT
Moon 12:51 PM EDT (9/4) 11:09 PM EDT (9/4)
Length of Visible Light 14h 00m
Length of Day
13h 02m
Waxing Crescent, 34% of the Moon is Illuminated
Sep 4
Waxing Crescent
Sep 5
First Quarter
Sep 14
Full
Sep 21
Last Quarter
Sep 28
New

Hourly Weather History & Observations

Time (EDT) Temp. Dew Point Humidity Pressure Visibility Wind Dir Wind Speed Gust Speed Precip Events Conditions
12:53 AM 75.0 °F 63.0 °F 66% 29.75 in 10.0 mi SSW 18.4 mph 29.9 mph N/A   Overcast
1:53 AM 75.0 °F 63.0 °F 66% 29.73 in 10.0 mi SSW 18.4 mph 27.6 mph N/A   Overcast
2:53 AM 75.0 °F 64.0 °F 69% 29.73 in 10.0 mi SW 17.3 mph 26.5 mph 0.00 in   Mostly Cloudy
3:53 AM 73.9 °F 66.0 °F 76% 29.70 in 8.0 mi SW 17.3 mph 28.8 mph 0.01 in Rain , Thunderstorm Light Thunderstorms and Rain
4:12 AM 73.0 °F 66.9 °F 81% 29.71 in 9.0 mi WSW 18.4 mph 25.3 mph 0.01 in Rain , Thunderstorm Light Rain
4:18 AM 73.0 °F 66.9 °F 81% 29.71 in 9.0 mi WSW 19.6 mph 26.5 mph 0.01 in Rain Light Rain
4:25 AM 73.0 °F 66.9 °F 81% 29.71 in 10.0 mi SW 13.8 mph 26.5 mph 0.01 in Rain Light Rain
4:53 AM 73.0 °F 66.9 °F 81% 29.70 in 10.0 mi WSW 16.1 mph - 0.01 in   Mostly Cloudy
5:19 AM 73.0 °F 66.9 °F 81% 29.72 in 10.0 mi West 17.3 mph - N/A   Mostly Cloudy
5:26 AM 71.1 °F 66.9 °F 87% 29.73 in 1.8 mi West 16.1 mph 31.1 mph 0.11 in Rain Heavy Rain
5:31 AM 71.1 °F 66.9 °F 87% 29.73 in 3.0 mi West 13.8 mph - 0.11 in Rain Light Rain
5:53 AM 71.1 °F 68.0 °F 90% 29.73 in 10.0 mi West 13.8 mph - 0.11 in   Overcast
6:53 AM 68.0 °F 63.0 °F 84% 29.77 in 10.0 mi WNW 11.5 mph - N/A   Overcast
7:53 AM 66.9 °F 59.0 °F 76% 29.80 in 10.0 mi WNW 11.5 mph - N/A   Partly Cloudy
8:53 AM 68.0 °F 59.0 °F 73% 29.83 in 10.0 mi West 15.0 mph - N/A   Partly Cloudy
9:53 AM 69.1 °F 59.0 °F 70% 29.86 in 10.0 mi West 19.6 mph - N/A   Partly Cloudy
10:53 AM 71.1 °F 57.9 °F 63% 29.88 in 10.0 mi West 19.6 mph - N/A   Scattered Clouds
11:53 AM 66.0 °F 55.9 °F 70% 29.91 in 10.0 mi WNW 15.0 mph 24.2 mph N/A   Overcast
12:29 PM 68.0 °F 55.9 °F 65% 29.93 in 10.0 mi WNW 19.6 mph - N/A   Mostly Cloudy
12:53 PM 66.0 °F 55.0 °F 68% 29.93 in 10.0 mi WNW 16.1 mph - N/A   Mostly Cloudy
12:55 PM 66.9 °F 55.0 °F 66% 29.94 in 10.0 mi NW 17.3 mph - N/A   Overcast
1:53 PM 66.0 °F 55.0 °F 68% 29.96 in 10.0 mi WNW 17.3 mph - N/A   Overcast
2:53 PM 66.9 °F 54.0 °F 63% 29.98 in 10.0 mi NW 13.8 mph - N/A   Overcast
3:53 PM 66.0 °F 53.1 °F 63% 29.99 in 10.0 mi WNW 15.0 mph - N/A   Overcast
4:53 PM 66.0 °F 53.1 °F 63% 30.01 in 10.0 mi West 13.8 mph - N/A   Overcast
5:53 PM 64.9 °F 53.1 °F 65% 30.02 in 10.0 mi WNW 6.9 mph - N/A   Overcast
6:53 PM 64.0 °F 52.0 °F 65% 30.05 in 10.0 mi WNW 9.2 mph - N/A   Overcast
7:53 PM 63.0 °F 53.1 °F 70% 30.07 in 10.0 mi West 4.6 mph - N/A   Overcast
8:53 PM 61.0 °F 54.0 °F 78% 30.08 in 10.0 mi West 5.8 mph - N/A   Overcast
9:53 PM 62.1 °F 53.1 °F 72% 30.09 in 10.0 mi WNW 5.8 mph - N/A   Overcast
10:53 PM 59.0 °F 52.0 °F 78% 30.09 in 10.0 mi WNW 5.8 mph - N/A   Mostly Cloudy
11:53 PM 60.1 °F 53.1 °F 78% 30.10 in 10.0 mi North 6.9 mph - N/A   Mostly Cloudy